Location: Kitchener-Waterloo
(43.4500°N, 80.5000°W)
Time: 18:10:40
(UTC-04:00)

Daily predictions for brighter satellites

Satellite Brightness Start Highest point End
(mag) Time Altitude Azimuth Time Altitude Azimuth Time Altitude Azimuth
ATLAS CENTAUR R/B 3.7 19:27:46 10° SSW 19:32:29 53° ESE 19:46:34 10° NE
Okean 3 Rocket 3.7 19:31:00 10° N 19:35:35 85° E 19:40:08 10° S
Cosmos 2333 Rocket 3.5 19:30:12 10° SW 19:35:44 47° WNW 19:41:18 10° NNE
SAR-Lupe-1 4.2 19:33:21 10° SSE 19:36:48 52° ENE 19:40:18 10° N
SJ-6B 3.0 19:34:25 10° SSE 19:38:18 53° ENE 19:42:18 10° N
TELKOM 3 4.5 19:37:11 10° NW 19:40:09 32° NNE 19:42:20 10° E
Helios 1A 3.9 19:37:59 10° SE 19:41:38 30° ENE 19:45:19 10° N
FREGAT/IRIS 3.1 19:38:50 10° SE 19:41:44 39° ENE 19:44:39 10° N
Resurs 01 Rocket 2.2 19:39:20 10° SE 19:43:23 36° ENE 19:47:27 10° N
Cosmos 1674 4.5 19:41:36 10° NNE 19:43:54 15° ENE 19:46:12 10° ESE
NOSS 3-2 (A) 3.5 19:40:17 10° SSW 19:46:19 78° SE 19:52:58 10° NE
Cosmos 1452 Rocket 3.6 19:44:52 10° NNW 19:50:05 60° ENE 19:55:16 10° SSE
Cosmos 1758 3.9 19:46:58 10° SSE 19:50:44 36° E 19:54:31 10° NNE
Cosmos 1484 Rocket 3.7 19:49:21 10° S 19:53:05 52° W 19:56:56 10° NNW
Timation 1 Rocket 4.5 19:48:37 10° NNW 19:54:37 84° WSW 20:00:35 10° SSE
ATLAS 5 CENTAUR R/B 1.9 19:51:20 10° SSW 19:56:01 61° ESE 20:01:08 10° NE
Abrixas 4.0 19:53:57 10° SSW 19:56:16 21° SE 19:57:41 15° ESE
Cosmos 2237 Rocket 3.8 19:51:13 10° SW 19:56:30 38° WNW 20:01:48 10° NNE
Nadezhda 4 Rocket 4.4 19:53:13 10° N 19:59:09 42° ENE 20:05:00 10° SE
Cosmos 1346 4.0 19:57:51 10° NNE 20:00:30 28° ENE 20:02:37 13° SE
COSMO-SKYMED 1 3.6 19:57:40 10° N 20:01:53 50° WNW 20:06:04 10° SSW
Cosmos 1072 Rocket 4.4 19:56:59 10° S 20:03:05 86° E 20:09:14 10° N
Meteor 1-21 Rocket 4.2 20:01:24 10° N 20:06:53 57° ENE 20:12:19 10° SSE
ASTEX 1 4.1 20:06:38 10° NNE 20:11:01 32° E 20:15:21 10° SSE
Cosmos 1420 Rocket 4.2 20:06:02 10° NNW 20:11:13 52° ENE 20:16:23 10° SE
Cosmos 1766 4.2 20:09:58 10° SSW 20:13:49 52° W 20:17:45 10° N
SL-16 R/B 2.9 20:11:39 10° SW 20:17:14 56° WNW 20:22:52 10° NNE
Helios 1B rocket 2.4 20:13:20 10° NNE 20:17:25 62° ESE 20:21:30 10° S
CENTAUR R/B 3.2 20:13:01 10° S 20:18:07 29° ESE 20:23:42 10° NE
Cosmos 1544 3.2 20:16:18 10° S 20:19:54 52° E 20:23:35 10° NNE
Cosmos 1766 Rocket 3.8 20:16:46 10° NNW 20:21:10 74° W 20:25:28 10° S
METEOR-M 4.2 20:15:58 10° SSE 20:21:19 84° WSW 20:26:42 10° NNW
NOSS 3-2 (C) 3.7 20:19:14 10° SW 20:25:20 76° NW 20:32:04 10° NE
CZ-2D R/B 3.7 20:24:44 23° SE 20:26:41 41° ENE 20:30:22 10° N
Cosmos 1076 Rocket 4.4 20:22:35 10° NNW 20:26:47 51° W 20:31:00 10° S
OAO 3 Rocket 4.4 20:23:37 10° WSW 20:27:44 29° S 20:30:04 20° SE
Spot 2 Rocket 3.6 20:23:18 10° S 20:28:20 79° WSW 20:33:25 10° NNW
Cosmos 1048 Rocket 4.1 20:26:21 10° S 20:31:28 52° ESE 20:36:34 10° NNE
Cosmos 1269 Rocket 4.0 20:26:48 10° S 20:31:59 62° ESE 20:37:13 10° NNE
FENGYUN 3A 3.6 20:29:40 10° SSE 20:34:59 67° ENE 20:40:22 10° N
Cosmos-2242 3.1 20:30:55 10° SSW 20:35:17 79° W 20:39:43 10° N
Cosmos 2034 Rocket 4.2 20:31:44 10° SSW 20:37:59 76° W 20:44:22 10° N
Envisat 4.2 20:39:20 23° ENE 20:39:27 23° ENE 20:43:22 10° NNE
H-2A R/B 2.8 20:39:08 31° SE 20:40:49 59° ENE 20:44:38 10° N
Gbstr 26 Del rocket 3.9 20:38:09 10° SSW 20:42:16 35° SE 20:42:57 34° ESE
Cosmos 1805 4.1 20:38:44 10° SSW 20:42:35 53° W 20:46:28 10° N
Cosmos 2151 3.6 20:38:57 10° N 20:42:41 34° ENE 20:42:41 34° ENE
CZ-4C R/B 4.4 20:38:20 10° W 20:42:51 24° NNW 20:47:52 10° NNE
Cosmos 1953 3.2 20:40:04 10° SSW 20:43:57 51° W 20:47:51 10° N
ISS -2.4 20:41:46 10° SSW 20:44:06 34° S 20:44:06 34° S
Cosmos 2058 4.4 20:41:54 10° NNE 20:44:01 21° NE 20:44:01 21° NE
ALOS 2.2 20:42:15 10° SSE 20:46:55 89° ENE 20:51:37 10° NNW
BREEZE-M DEB (TANK) 3.7 20:35:56 10° W 20:49:52 74° N 20:52:04 34° E
Cosmos 1500 Rocket 3.5 20:49:52 10° N 20:54:20 88° E 20:57:01 24° S
Cosmos 1842 Rocket 3.4 20:50:42 10° S 20:55:01 82° E 20:59:23 10° N
Cosmos 158 Rocket 3.9 20:51:54 10° S 20:56:36 51° ESE 21:01:20 10° NNE
USA 215 3.2 20:50:07 10° NE 20:56:43 87° SE 21:03:15 10° SW
Cosmos 1943 Rocket 3.0 20:52:38 10° N 20:57:38 31° NE 20:58:06 31° ENE
Cosmos 2369 Rocket 2.1 20:52:05 10° NNW 20:57:44 66° ENE 20:59:45 40° SE
CZ-4B DEB 4.4 20:57:58 77° ESE 20:58:06 79° ENE 21:01:43 10° N
GPS 2-04 Rocket1 4.5 20:56:39 10° SW 20:58:12 18° SSW 20:58:12 18° SSW
Cosmos 1943 3.2 20:54:00 10° S 20:59:29 57° ESE 21:04:59 10° NNE
Cosmos 1603 4.2 20:59:03 10° SW 21:04:43 61° WNW 21:10:27 10° NNE
Cosmos 2263 4.3 20:59:06 10° NNW 21:04:48 56° ENE 21:05:59 47° ESE
Cosmos 1470 2.8 21:02:09 10° SSW 21:06:01 74° W 21:09:56 10° N
Cosmos 1627 Rocket 4.4 21:02:31 10° N 21:08:42 67° E 21:11:13 37° SSE
Cosmos 1733 3.2 21:08:47 66° SSW 21:09:17 83° W 21:13:10 10° N
SL-8 R/B 3.5 21:07:03 10° WSW 21:11:50 81° SSE 21:12:17 72° E
SeaSat 1 3.7 21:07:44 10° NE 21:15:13 27° S 21:17:27 10° SSW
ERS-1 Rocket 3.2 21:15:22 50° NE 21:15:22 50° NE 21:19:54 10° N
Cosmos 1674 4.0 21:16:06 10° NNW 21:19:45 40° W 21:21:24 26° SW
Resurs 01 Rocket 4.0 21:16:25 10° SSW 21:19:56 23° W 21:23:28 10° NW
Cosmos 1110 Rocket 3.9 21:16:58 10° NNW 21:22:16 67° ENE 21:22:20 67° ENE
Meteor 1-16 Rocket 3.9 21:36:59 86° WSW 21:37:04 87° W 21:42:26 10° N
Meteor 1-11 4.2 21:33:40 10° NNW 21:39:29 84° W 21:40:07 72° S
ATLAS 5 CENTAUR R/B 4.0 21:37:05 10° W 21:41:09 25° NW 21:45:34 10° NNE
Cosmos 839 Rocket 4.4 21:35:02 10° NW 21:42:37 69° WSW 21:44:15 51° S
GP-B 4.2 21:40:56 10° NNW 21:45:09 43° W 21:45:48 40° WSW
Cosmos 2279 Rocket 3.8 21:46:27 84° ESE 21:46:30 85° E 21:52:45 10° N
UNK 4.3 21:35:42 10° WNW 21:53:53 69° NNE 21:54:40 63° NE
Cosmos 1655 Rocket 4.1 21:48:48 10° NNW 21:54:59 69° W 21:55:58 59° SW
Cosmos 1331 Rocket 4.4 21:50:05 10° NNW 21:54:37 62° NW 21:54:37 62° NW
SL-24 R/B - RUBIN 2 4.5 21:54:55 10° NW 22:01:21 77° W 22:01:21 77° W
H-2A R/B 4.3 22:06:03 21° N 22:06:03 21° N 22:07:32 10° N
CENTAUR R/B 3.1 22:02:14 10° SW 22:08:17 57° NW 22:15:10 10° NNE
Envisat 4.3 22:19:33 38° NW 22:19:33 38° NW 22:23:04 10° NNW
H-2A R/B 4.4 22:32:02 14° N 22:32:02 14° N 22:32:53 10° N
USA 215 4.4 22:37:00 30° NNE 22:39:20 39° NNW 22:45:16 10° W
Cosmos 2369 Rocket 4.3 22:37:23 10° WNW 22:41:09 18° W 22:41:35 18° WSW
Cosmos 1943 Rocket 3.7 22:36:14 10° NW 22:39:39 32° WNW 22:39:39 32° WNW
